• MPC Preparation (Info)

  • MPEC 2019-T51 : 2019 TM

    The following Minor Planet Electronic Circular may be linked-to from your own Web pages, but must not otherwise be redistributed electronically.

    A form allowing access to any MPEC is at the bottom of this page.


    Read MPEC 2019-T50 Read MPEC 2019-T52


    M.P.E.C. 2019-T51                               Issued 2019 October 3, 01:21 UT
    
         The Minor Planet Electronic Circulars contain information on unusual
             minor planets and routine data on comets.  They are published
        on behalf of Division F of the International Astronomical Union by the
              Minor Planet Center, Smithsonian Astrophysical Observatory,
                              Cambridge, MA 02138, U.S.A.
    
                 Prepared using the Tamkin Foundation Computer Network
    
                                  MPC@CFA.HARVARD.EDU
                URL https://www.minorplanetcenter.net/    ISSN 1523-6714
    
                                     2019 TM                                 
    
    
    Observations:
         K19T00M  C2019 09 22.37856523 07 08.213-08 07 27.46         21.6 GVET051F51
         K19T00M  C2019 09 22.38969823 07 05.957-08 07 22.00         21.5 GVET051F51
         K19T00M  C2019 09 22.40082123 07 03.697-08 07 16.44         21.8 GVET051F51
         K19T00M  C2019 09 26.29447 22 52 32.797-07 20 57.53         20.7 wUET051F51
         K19T00M  C2019 09 26.30606 22 52 29.073-07 20 46.43         21.1 wUET051F51
         K19T00M  C2019 09 26.31771 22 52 25.323-07 20 35.10         21.1 wUET051F51
         K19T00M  C2019 09 30.34496222 25 02.004-05 37 08.25         20.9 GVET051F51
         K19T00M  C2019 09 30.36975722 24 46.399-05 36 10.46         20.0 GVET051F51
         K19T00M* C2019 10 02.15888 22 03 47.90 -04 08 54.0                VET051G96
         K19T00M  C2019 10 02.16453 22 03 42.75 -04 08 34.0          20.0 GVET051G96
         K19T00M  C2019 10 02.17017 22 03 37.59 -04 08 13.1          20.3 GVET051G96
         K19T00M  C2019 10 02.17582 22 03 32.38 -04 07 52.8          20.3 GVET051G96
         K19T00M  C2019 10 02.24048 22 02 32.24 -04 03 51.5          20.3 GVET051I52
         K19T00M  C2019 10 02.24146 22 02 31.37 -04 03 47.2          19.9 GVET051I52
         K19T00M  C2019 10 02.24291 22 02 29.98 -04 03 42.7          20.5 GVET051I52
         K19T00M  C2019 10 02.24651 22 02 27.01 -04 03 29.9                VET051I52
         K19T00M HC2019 10 02.91152 21 51 51.22 -03 18 08.1          20   GVET051204
         K19T00M KC2019 10 02.91838 21 51 43.33 -03 17 32.2                VET051104
         K19T00M HC2019 10 02.92593 21 51 35.46 -03 17 01.6                VET051204
         K19T00M KC2019 10 02.92606 21 51 34.91 -03 16 57.0          19.6 GVET051104
         K19T00M  C2019 10 02.92865 21 51 32.56 -03 16 59.1          19.1 VVET051033
         K19T00M  C2019 10 02.92964 21 51 31.49 -03 16 55.1          18.9 VVET051033
         K19T00M  C2019 10 02.93061 21 51 30.44 -03 16 50.5          19.2 VVET051033
         K19T00M  C2019 10 02.93159 21 51 29.36 -03 16 46.1          19.3 VVET051033
         K19T00M  C2019 10 02.93256 21 51 28.30 -03 16 41.5          19.5 VVET051033
         K19T00M  C2019 10 02.93354 21 51 27.23 -03 16 36.9          19.2 VVET051033
         K19T00M KC2019 10 02.93374 21 51 26.52 -03 16 22.0          19.9 GVET051104
         K19T00M  C2019 10 02.93452 21 51 26.18 -03 16 32.5          19.5 VVET051033
         K19T00M  C2019 10 02.93549 21 51 25.12 -03 16 28.0          19.3 VVET051033
    
    Observer details:
    033 Karl Schwarzschild Observatory, Tautenburg.  Observers U. Laux, B. 
       Stecklum.  Measurer B. Stecklum.  1.34-m f/3 Schmidt + CCD.
    104 San Marcello Pistoiese.  Observers P. Bacci, M. Maestripieri.  Measurers P. 
       Bacci, L. Tesi, G. Fagioli.  0.60-m reflector + CCD.
    204 Schiaparelli Observatory.  Observer L. Buzzi.  0.84-m f/3.5 reflector + CCD.
    F51 Pan-STARRS 1, Haleakala.  Observers J. Bulger, K. Chambers, T. Lowe, E. 
       Magnier, A. Schultz, M. Willman.  Measurers S. Chastel, M. Huber, Y. 
       Ramanjooloo, R. Wainscoat, R. Weryk, K. Chambers, T. de Boer, L. Denneau, J. 
       Fairlamb, H. Flewelling, C.-C. Lin, E. Magnier.  1.8-m Ritchey-Chretien + 
       CCD.
    G96 Mt. Lemmon Survey.  Observer H. Groeller.  Measurers B. M. Africano, E. J. 
       Christensen, G. A. Farneth, D. C. Fuls, A. R. Gibbs, A. D. Grauer, H. 
       Groeller, R. A. Kowalski, S. M. Larson, G. J. Leonard, T. A. Pruyne, D. 
       Rankin, R. L. Seaman, F. C. Shelly.  1.5-m reflector + 10K CCD.
    I52 Steward Observatory, Mt. Lemmon Station.  Observer T. A. Pruyne.  Measurers 
       B. M. Africano, E. J. Christensen, G. A. Farneth, D. C. Fuls, A. R. Gibbs, 
       A. D. Grauer, H. Groeller, R. A. Kowalski, S. M. Larson, G. J. Leonard, T. 
       A. Pruyne, D. Rankin, R. L. Seaman, F. C. Shelly.  1.0-m reflector + CCD.
    
    Orbital elements:
    2019 TM                                                  Earth MOID = 0.0132 AU
    Epoch 2019 Apr. 27.0 TT = JDT 2458600.5                 Veres
    M 291.07617              (2000.0)            P               Q
    n   0.33843298     Peri.   69.60025     +0.33105623     -0.94361023
    a   2.0393304      Node     1.06915     +0.83935847     +0.29388546
    e   0.5953977      Incl.    3.77338     +0.43113703     +0.15241744
    P   2.91           H   25.0           G   0.15           U   8
    Residuals in seconds of arc
    190922 F51  0.2-  0.1-    191002 G96  0.1+  0.1-    191002 033  0.5+  0.3-
    190922 F51  0.2-  0.1-    191002 G96  0.0   0.6-    191002 033  0.6+  0.8-
    190922 F51  0.2-  0.1-    191002 I52  0.4-  0.7-    191002 033  0.7+  0.6-
    190926 F51  0.1-  0.1-    191002 I52  0.3+  0.1-    191002 033  0.5+  0.7-
    190926 F51  0.2-  0.1-    191002 I52  0.2-  1.0-    191002 033  0.4+  0.6-
    190926 F51  0.1-  0.1-    191002 I52 (5.7+  1.9-)   191002 033  0.3+  0.5-
    190930 F51  0.5-  0.0     191002 204  0.1+  1.1-    191002 104  0.4-  0.5-
    190930 F51  0.3-  0.1-    191002 104  0.1-  0.4-    191002 033  0.6+  0.6-
    191002 G96  0.9-  0.5+    191002 204  0.4-  0.3-    191002 033  0.5+  0.5-
    191002 G96  0.3-  0.2-    191002 104  0.6-  0.3-
    
    Ephemeris:
    2019 TM                  a,e,i = 2.04, 0.60, 4                   q = 0.8251
    Date    TT    R. A. (2000) Decl.     Delta      r    Elong.  Phase     V
    2019 09 03    23 32 39.9 -08 52 02   0.2913  1.2956   168.4     9.0    23.5
    ...
    2019 09 18    23 17 19.3 -08 32 45   0.1594  1.1629   171.5     7.3    21.9
    ...
    2019 09 26    22 53 53.2 -07 25 02   0.09710 1.0944   159.6    18.7    21.1
    ...
    2019 10 02    22 06 00.4 -04 16 53   0.05417 1.0450   143.2    35.0    20.2
    2019 10 03    21 50 22.0 -03 09 06   0.04759 1.0370   138.6    39.7    20.0
    2019 10 04    21 30 01.0 -01 38 36   0.04132 1.0291   132.8    45.5    19.9
    ...
    2019 10 10    16 16 23.6 +16 13 21   0.02658 0.9833    53.7   125.1    22.3
    ...
    2019 10 18    13 03 09.9 +14 15 38   0.07555 0.9283    24.4   153.6    28.4
    ...
    2019 11 02    12 23 42.5 +10 30 50   0.1930  0.8521    39.4   132.4    27.0
    
    A. U. Tomatic                (C) Copyright 2019 MPC           M.P.E.C. 2019-T51
    


    Read MPEC 2019-T50 Read MPEC 2019-T52


    MPEC number:

    Enter an MPEC number in one of the following forms:

    • 1997-B01 (the full form)
    • J97B01 (the packed version of the full form)
    • B01 (the abbreviated form)